Location: ??
(35.4032°N, 139.3073°E)
Time: 02:36:09
(UTC+00:00)

ADEOS II - Pass Details

Date: 13 April 2024
Orbit: 796 x 799 km, 98.7° (Epoch: 25 May)

Event Time Altitude Azimuth Distance (km) Brightness Sun altitude
Rises 16:24:32 0° 21° (NNE) 3,308 6.2 -39.2°
Reaches altitude 10° 16:27:00 10° 28° (NNE) 2,374 5.2 -38.9°
Enters shadow 16:29:16 24° 43° (NE) 1,596 4.1 -38.7°
